Time,TemperatureF,DewpointF,PressureIn,WindDirection,WindDirectionDegrees,WindSpeedMPH,WindSpeedGustMPH,Humidity,HourlyPrecipIn,Conditions,Clouds,dailyrainin,SoftwareType,DateUTC
2013-02-02 00:02:00,17.0,12.0,-100.00,WSW,248,9.0,14.0,82,0.00,,,0.00,,2013-02-02 07:02:00,
2013-02-02 00:12:00,17.0,12.0,-100.00,WSW,248,9.0,14.0,82,0.00,,,0.00,,2013-02-02 07:12:00,
2013-02-02 00:21:00,17.0,12.0,-100.00,WSW,248,9.0,14.0,82,0.00,,,0.00,,2013-02-02 07:21:00,
2013-02-02 00:52:00,16.0,11.0,-100.00,West,265,10.0,17.0,81,0.00,,,0.00,,2013-02-02 07:52:00,
2013-02-02 01:01:00,16.0,11.0,-100.00,West,265,10.0,17.0,81,0.00,,,0.00,,2013-02-02 08:01:00,
2013-02-02 01:11:00,16.0,11.0,-100.00,West,265,10.0,17.0,81,0.00,,,0.00,,2013-02-02 08:11:00,
2013-02-02 01:21:00,16.0,11.0,-100.00,West,265,10.0,17.0,81,0.00,,,0.00,,2013-02-02 08:21:00,
2013-02-02 01:53:00,16.0,13.0,-100.00,WSW,252,4.0,13.0,86,0.00,,,0.00,,2013-02-02 08:53:00,
2013-02-02 02:01:00,16.0,13.0,-100.00,WSW,252,4.0,13.0,86,0.00,,,0.00,,2013-02-02 09:01:00,
2013-02-02 02:11:00,16.0,13.0,-100.00,WSW,252,4.0,13.0,86,0.00,,,0.00,,2013-02-02 09:11:00,
2013-02-02 02:22:00,16.0,13.0,-100.00,WSW,252,4.0,13.0,86,0.00,,,0.00,,2013-02-02 09:22:00,
2013-02-02 02:52:00,16.0,14.0,-100.00,SW,231,4.0,6.0,90,0.00,,,0.00,,2013-02-02 09:52:00,
2013-02-02 03:01:00,16.0,14.0,-100.00,SW,231,4.0,6.0,90,0.00,,,0.00,,2013-02-02 10:01:00,
2013-02-02 03:11:00,16.0,14.0,-100.00,SW,231,4.0,6.0,90,0.00,,,0.00,,2013-02-02 10:11:00,
2013-02-02 03:21:00,16.0,14.0,-100.00,SW,231,4.0,6.0,90,0.00,,,0.00,,2013-02-02 10:21:00,
2013-02-02 03:52:00,14.0,11.0,-100.00,WNW,282,3.0,7.0,88,0.00,,,0.00,,2013-02-02 10:52:00,
2013-02-02 04:01:00,14.0,11.0,-100.00,WNW,282,3.0,7.0,88,0.00,,,0.00,,2013-02-02 11:01:00,
2013-02-02 04:11:00,14.0,11.0,-100.00,WNW,282,3.0,7.0,88,0.00,,,0.00,,2013-02-02 11:11:00,
2013-02-02 04:21:00,14.0,11.0,-100.00,WNW,282,3.0,7.0,88,0.00,,,0.00,,2013-02-02 11:21:00,
2013-02-02 04:52:00,14.0,11.0,-100.00,ESE,121,3.0,5.0,88,0.00,,,0.00,,2013-02-02 11:52:00,
2013-02-02 05:02:00,14.0,11.0,-100.00,ESE,121,3.0,5.0,88,0.00,,,0.00,,2013-02-02 12:02:00,
2013-02-02 05:11:00,14.0,11.0,-100.00,ESE,121,3.0,5.0,88,0.00,,,0.00,,2013-02-02 12:11:00,
2013-02-02 05:22:00,14.0,11.0,-100.00,ESE,121,3.0,5.0,88,0.00,,,0.00,,2013-02-02 12:22:00,
2013-02-02 05:52:00,15.0,12.0,-100.00,SE,142,2.0,6.0,86,0.00,,,0.00,,2013-02-02 12:52:00,
2013-02-02 06:03:00,15.0,12.0,-100.00,SE,142,2.0,6.0,86,0.00,,,0.00,,2013-02-02 13:03:00,
2013-02-02 06:11:00,15.0,12.0,-100.00,SE,142,2.0,6.0,86,0.00,,,0.00,,2013-02-02 13:11:00,
2013-02-02 06:21:00,15.0,12.0,-100.00,SE,142,2.0,6.0,86,0.00,,,0.00,,2013-02-02 13:21:00,
2013-02-02 06:52:00,14.0,11.0,-100.00,West,264,0.0,4.0,87,0.00,,,0.00,,2013-02-02 13:52:00,
2013-02-02 07:02:00,14.0,11.0,-100.00,West,264,0.0,4.0,87,0.00,,,0.00,,2013-02-02 14:02:00,
2013-02-02 07:11:00,14.0,11.0,-100.00,West,264,0.0,4.0,87,0.00,,,0.00,,2013-02-02 14:11:00,
2013-02-02 07:22:00,14.0,11.0,-100.00,West,264,0.0,4.0,87,0.00,,,0.00,,2013-02-02 14:22:00,
2013-02-02 07:52:00,14.0,11.0,-100.00,West,266,2.0,3.0,86,0.00,,,0.00,,2013-02-02 14:52:00,
2013-02-02 08:03:00,14.0,11.0,-100.00,West,266,2.0,3.0,86,0.00,,,0.00,,2013-02-02 15:03:00,
2013-02-02 08:12:00,14.0,11.0,-100.00,West,266,2.0,3.0,86,0.00,,,0.00,,2013-02-02 15:12:00,
2013-02-02 08:22:00,14.0,11.0,-100.00,West,266,2.0,3.0,86,0.00,,,0.00,,2013-02-02 15:22:00,
2013-02-02 08:52:00,21.0,15.0,-100.00,NNW,333,0.0,3.0,77,0.00,,,0.00,,2013-02-02 15:52:00,
2013-02-02 09:52:00,21.0,14.0,-100.00,NE,41,4.0,6.0,75,0.00,,,0.00,,2013-02-02 16:52:00,
2013-02-02 10:02:00,21.0,14.0,-100.00,NE,41,4.0,6.0,75,0.00,,,0.00,,2013-02-02 17:02:00,
2013-02-02 10:11:00,21.0,14.0,-100.00,NE,41,4.0,6.0,75,0.00,,,0.00,,2013-02-02 17:11:00,
2013-02-02 10:22:00,21.0,14.0,-100.00,NE,41,4.0,6.0,75,0.00,,,0.00,,2013-02-02 17:22:00,
2013-02-02 10:52:00,28.0,19.0,-100.00,NNW,341,2.0,6.0,68,0.02,,,0.02,,2013-02-02 17:52:00,
2013-02-02 11:02:00,28.0,19.0,-100.00,NNW,341,2.0,6.0,68,0.02,,,0.02,,2013-02-02 18:02:00,
2013-02-02 11:12:00,28.0,19.0,-100.00,NNW,341,2.0,6.0,68,0.02,,,0.02,,2013-02-02 18:12:00,
2013-02-02 11:22:00,28.0,19.0,-100.00,NNW,341,2.0,6.0,68,0.02,,,0.02,,2013-02-02 18:22:00,
2013-02-02 11:52:00,31.0,15.0,-100.00,SW,220,3.0,6.0,52,0.12,,,0.14,,2013-02-02 18:52:00,
2013-02-02 12:02:00,31.0,15.0,-100.00,SW,220,3.0,6.0,52,0.12,,,0.14,,2013-02-02 19:02:00,
2013-02-02 12:12:00,31.0,15.0,-100.00,SW,220,3.0,6.0,52,0.12,,,0.14,,2013-02-02 19:12:00,
2013-02-02 12:21:00,31.0,15.0,-100.00,SW,220,3.0,6.0,52,0.12,,,0.14,,2013-02-02 19:21:00,
2013-02-02 12:52:00,30.0,13.0,-100.00,WSW,254,4.0,8.0,48,0.05,,,0.19,,2013-02-02 19:52:00,
2013-02-02 13:01:00,30.0,13.0,-100.00,WSW,254,4.0,8.0,48,0.05,,,0.19,,2013-02-02 20:01:00,
2013-02-02 13:11:00,30.0,13.0,-100.00,WSW,254,4.0,8.0,48,0.05,,,0.19,,2013-02-02 20:11:00,
2013-02-02 13:21:00,30.0,13.0,-100.00,WSW,254,4.0,8.0,48,0.05,,,0.19,,2013-02-02 20:21:00,
2013-02-02 13:52:00,29.0,11.0,-100.00,WNW,285,7.0,13.0,46,0.02,,,0.21,,2013-02-02 20:52:00,
2013-02-02 14:02:00,29.0,11.0,-100.00,WNW,285,7.0,13.0,46,0.02,,,0.21,,2013-02-02 21:02:00,
2013-02-02 14:11:00,29.0,11.0,-100.00,WNW,285,7.0,13.0,46,0.02,,,0.21,,2013-02-02 21:11:00,
2013-02-02 14:21:00,29.0,11.0,-100.00,WNW,285,7.0,13.0,46,0.02,,,0.21,,2013-02-02 21:21:00,
2013-02-02 14:52:00,30.0,9.0,-100.00,West,279,6.0,13.0,41,0.00,,,0.21,,2013-02-02 21:52:00,
2013-02-02 15:02:00,30.0,9.0,-100.00,West,279,6.0,13.0,41,0.00,,,0.21,,2013-02-02 22:02:00,
2013-02-02 15:12:00,30.0,9.0,-100.00,West,279,6.0,13.0,41,0.00,,,0.21,,2013-02-02 22:12:00,
2013-02-02 15:21:00,30.0,9.0,-100.00,West,279,6.0,13.0,41,0.00,,,0.21,,2013-02-02 22:21:00,
2013-02-02 16:52:00,29.0,4.0,-100.00,NW,304,2.0,9.0,34,-99.99,,,0.21,,2013-02-02 23:52:00,
2013-02-02 17:02:00,29.0,4.0,-100.00,NW,304,2.0,9.0,34,-99.99,,,0.21,,2013-02-03 00:02:00,
2013-02-02 17:11:00,29.0,4.0,-100.00,NW,304,2.0,9.0,34,-99.99,,,0.21,,2013-02-03 00:11:00,
2013-02-02 17:22:00,29.0,4.0,-100.00,NW,304,2.0,9.0,34,-99.99,,,0.21,,2013-02-03 00:22:00,
2013-02-02 17:52:00,23.0,3.0,-100.00,West,281,2.0,4.0,42,0.00,,,0.21,,2013-02-03 00:52:00,
2013-02-02 18:02:00,23.0,3.0,-100.00,West,281,2.0,4.0,42,0.00,,,0.21,,2013-02-03 01:02:00,
2013-02-02 18:11:00,23.0,3.0,-100.00,West,281,2.0,4.0,42,0.00,,,0.21,,2013-02-03 01:11:00,
2013-02-02 18:21:00,23.0,3.0,-100.00,West,281,2.0,4.0,42,0.00,,,0.21,,2013-02-03 01:21:00,
2013-02-02 18:52:00,21.0,3.0,-100.00,WSW,258,2.0,5.0,44,0.00,,,0.21,,2013-02-03 01:52:00,
2013-02-02 19:01:00,21.0,3.0,-100.00,WSW,258,2.0,5.0,44,0.00,,,0.21,,2013-02-03 02:01:00,
2013-02-02 19:11:00,21.0,3.0,-100.00,WSW,258,2.0,5.0,44,0.00,,,0.21,,2013-02-03 02:11:00,
2013-02-02 19:21:00,21.0,3.0,-100.00,WSW,258,2.0,5.0,44,0.00,,,0.21,,2013-02-03 02:21:00,
2013-02-02 19:52:00,21.0,4.0,-100.00,East,79,3.0,3.0,46,0.00,,,0.21,,2013-02-03 02:52:00,
2013-02-02 20:02:00,21.0,4.0,-100.00,East,79,3.0,3.0,46,0.00,,,0.21,,2013-02-03 03:02:00,
2013-02-02 20:11:00,21.0,4.0,-100.00,East,79,3.0,3.0,46,0.00,,,0.21,,2013-02-03 03:11:00,
2013-02-02 20:21:00,21.0,4.0,-100.00,East,79,3.0,3.0,46,0.00,,,0.21,,2013-02-03 03:21:00,
2013-02-02 20:52:00,20.0,5.0,-100.00,NE,52,3.0,5.0,51,0.00,,,0.21,,2013-02-03 03:52:00,
2013-02-02 21:01:00,20.0,5.0,-100.00,NE,52,3.0,5.0,51,0.00,,,0.21,,2013-02-03 04:01:00,
2013-02-02 21:11:00,20.0,5.0,-100.00,NE,52,3.0,5.0,51,0.00,,,0.21,,2013-02-03 04:11:00,
2013-02-02 21:21:00,20.0,5.0,-100.00,NE,52,3.0,5.0,51,0.00,,,0.21,,2013-02-03 04:21:00,
2013-02-02 21:52:00,19.0,4.0,-100.00,West,260,0.0,3.0,51,0.00,,,0.21,,2013-02-03 04:52:00,
2013-02-02 22:03:00,19.0,4.0,-100.00,West,260,0.0,3.0,51,0.00,,,0.21,,2013-02-03 05:03:00,
2013-02-02 22:12:00,19.0,4.0,-100.00,West,260,0.0,3.0,51,0.00,,,0.21,,2013-02-03 05:12:00,
2013-02-02 22:22:00,19.0,4.0,-100.00,West,260,0.0,3.0,51,0.00,,,0.21,,2013-02-03 05:22:00,
2013-02-02 22:52:00,21.0,2.0,-100.00,SW,222,4.0,8.0,42,0.00,,,0.21,,2013-02-03 05:52:00,
2013-02-02 23:02:00,21.0,2.0,-100.00,SW,222,4.0,8.0,42,0.00,,,0.21,,2013-02-03 06:02:00,
2013-02-02 23:11:00,21.0,2.0,-100.00,SW,222,4.0,8.0,42,0.00,,,0.21,,2013-02-03 06:11:00,
2013-02-02 23:21:00,21.0,2.0,-100.00,SW,222,4.0,8.0,42,0.00,,,0.21,,2013-02-03 06:21:00,
2013-02-02 23:52:00,23.0,1.0,-100.00,SW,228,5.0,8.0,37,0.00,,,0.21,,2013-02-03 06:52:00,